Edinburg, TX

9:46 AM CST on December 08, 2016 (GMT -0600)
Edinburg

Weather History for KEBG - January, 2013

Change the Weather History Date:

Wednesday, January 9, 2013

  Actual Average (KMFE) Record (KMFE)
Temperature  
Mean Temperature 65 °F -  
Max Temperature 71 °F 69 °F 90 °F (1952)
Min Temperature 58 °F 49 °F 28 °F (1913)
Growing Degree Days 15 (Base 50)    
Moisture  
Dew Point 59 °F    
Average Humidity 85    
Maximum Humidity 93    
Minimum Humidity 70    
Precipitation  
Precipitation 0.28 in - - ()
Sea Level Pressure  
Sea Level Pressure 29.95 in    
Wind  
Wind Speed 9 mph (WNW)    
Max Wind Speed 22 mph    
Max Gust Speed 26 mph    
Visibility 7 miles    
Events Rain , Thunderstorm    
Averages and records for this station are not official NWS values.
T = Trace of Precipitation, MM = Missing Value Source: NWS Daily Summary

Daily Weather History Graph

Daily Weather History Graph

Search for Another Location

Airport or City:

Trip Planner

Search our weather history database for the weather conditions in past years. The results will help you decide how hot, cold, wet, or windy it might be!

Date:

Astronomy

Jan. 09, 2013 Rise Set
Actual Time 7:22 AM CST 5:57 PM CST
Civil Twilight 6:57 AM CST 6:22 PM CST
Nautical Twilight 6:28 AM CST 6:51 PM CST
Astronomical Twilight 6:00 AM CST 7:19 PM CST
Moon 5:02 AM CST (1/9) 4:01 PM CST (1/9)
Length of Visible Light 11h 25m
Length of Day
10h 35m
Waning Crescent, 6% of the Moon is Illuminated
Jan 9
Waning Crescent
Jan 11
New
Jan 18
First Quarter
Jan 26
Full
Feb 3
Last Quarter

Hourly Weather History & Observations

Time (CST) Temp. Dew Point Humidity Pressure Visibility Wind Dir Wind Speed Gust Speed Precip Events Conditions
12:15 AM 71.2 °F 67.1 °F 87% 29.84 in 5.0 mi SSE 16.1 mph 24.2 mph 0.03 in Rain Light Rain
12:35 AM 71.6 °F 67.3 °F 86% 29.82 in 5.0 mi SSE 12.7 mph - 0.03 in   Haze
12:55 AM 71.2 °F 67.1 °F 87% 29.83 in 5.0 mi SSE 5.8 mph - 0.03 in   Overcast
1:15 AM 71.1 °F 67.3 °F 88% 29.84 in 5.0 mi South 3.5 mph - N/A   Overcast
1:35 AM 70.7 °F 67.1 °F 88% 29.84 in 4.0 mi WSW 5.8 mph - N/A   Overcast
1:55 AM 69.1 °F 65.3 °F 88% 29.85 in 7.0 mi West 8.1 mph - N/A   Light Drizzle
2:15 AM 68.2 °F 64.4 °F 88% 29.85 in 7.0 mi West 8.1 mph - N/A   Overcast
2:35 AM 68.0 °F 63.5 °F 85% 29.85 in 7.0 mi West 6.9 mph - N/A   Overcast
2:55 AM 66.4 °F 62.1 °F 86% 29.88 in 7.0 mi West 17.3 mph 25.3 mph N/A   Overcast
3:15 AM 62.6 °F 58.5 °F 86% 29.85 in 5.0 mi WNW 6.9 mph 10.4 mph N/A   Overcast
3:35 AM 62.6 °F 58.5 °F 86% 29.85 in 7.0 mi WNW 9.2 mph - N/A   Scattered Clouds
3:55 AM 62.2 °F 58.3 °F 87% 29.85 in 7.0 mi NW 9.2 mph - N/A   Clear
4:15 AM 61.7 °F 57.9 °F 87% 29.85 in 7.0 mi NW 9.2 mph - N/A   Clear
4:35 AM 61.7 °F 58.1 °F 88% 29.86 in 10.0 mi NW 9.2 mph - N/A   Scattered Clouds
4:55 AM 61.9 °F 58.1 °F 87% 29.87 in 7.0 mi NW 6.9 mph - N/A   Mostly Cloudy
5:15 AM 62.2 °F 58.3 °F 87% 29.87 in 7.0 mi NW 5.8 mph - N/A   Overcast
5:35 AM 62.4 °F 58.3 °F 86% 29.91 in 10.0 mi West 18.4 mph - N/A   Overcast
5:55 AM 61.0 °F 56.7 °F 86% 29.90 in 10.0 mi WNW 21.9 mph 26.5 mph N/A   Overcast
6:15 AM 59.9 °F 55.9 °F 87% 29.89 in 10.0 mi WNW 15.0 mph 24.2 mph N/A Rain Rain
6:35 AM 59.5 °F 55.8 °F 87% 29.88 in 10.0 mi NW 12.7 mph 18.4 mph N/A   Drizzle
7:15 AM 59.5 °F 56.3 °F 89% 29.93 in 10.0 mi WNW 8.1 mph - 0.01 in Rain Light Rain
7:35 AM 59.4 °F 56.3 °F 90% 29.93 in 5.0 mi NW 11.5 mph - 0.06 in Rain Rain
7:55 AM 59.5 °F 56.7 °F 90% 29.95 in 10.0 mi NW 8.1 mph - 0.08 in Rain , Thunderstorm Rain
8:35 AM 59.9 °F 57.2 °F 91% 29.97 in 10.0 mi Calm Calm - 0.04 in Rain , Thunderstorm Light Thunderstorms and Rain
8:55 AM 59.9 °F 57.2 °F 91% 29.94 in 5.0 mi NNW 6.9 mph - 0.06 in Rain Rain
9:15 AM 60.1 °F 57.6 °F 91% 29.97 in 7.0 mi West 4.6 mph - 0.02 in Rain , Thunderstorm Light Thunderstorms and Rain
9:35 AM 59.9 °F 57.4 °F 91% 29.97 in 7.0 mi West 5.8 mph - 0.03 in Rain Rain
9:55 AM 60.1 °F 57.6 °F 91% 29.98 in 7.0 mi West 3.5 mph - 0.06 in Rain , Thunderstorm Rain
10:15 AM 59.4 °F 57.0 °F 92% 30.01 in 7.0 mi WSW 6.9 mph - 0.03 in Rain Rain
10:35 AM 59.2 °F 56.8 °F 92% 30.00 in 10.0 mi West 11.5 mph - 0.05 in Rain Light Rain
10:55 AM 60.1 °F 57.2 °F 90% 30.00 in 7.0 mi WSW 9.2 mph - 0.05 in   Mostly Cloudy
11:15 AM 60.6 °F 57.4 °F 89% 29.99 in 7.0 mi West 12.7 mph 16.1 mph N/A   Mostly Cloudy
12:15 PM 62.6 °F 58.3 °F 86% 29.96 in 5.0 mi WNW 9.2 mph - N/A   Haze
12:35 PM 63.1 °F 57.9 °F 83% 29.95 in 7.0 mi WNW 10.4 mph - N/A   Overcast
12:55 PM 63.5 °F 58.3 °F 83% 29.95 in 5.0 mi West 10.4 mph - N/A   Haze
1:15 PM 64.2 °F 59.0 °F 83% 29.94 in 5.0 mi WNW 8.1 mph - N/A   Haze
1:35 PM 64.2 °F 58.5 °F 82% 29.93 in 5.0 mi NW 9.2 mph - N/A   Haze
1:55 PM 64.2 °F 58.5 °F 82% 29.91 in 7.0 mi WNW 9.2 mph - N/A   Overcast
2:15 PM 65.5 °F 58.6 °F 79% 29.93 in 7.0 mi WNW 8.1 mph - N/A   Mostly Cloudy
2:35 PM 65.8 °F 58.1 °F 76% 29.91 in 5.0 mi NW 8.1 mph - N/A   Haze
2:55 PM 67.1 °F 58.3 °F 73% 29.93 in 7.0 mi NW 6.9 mph - N/A   Clear
3:15 PM 66.9 °F 57.9 °F 73% 29.94 in 7.0 mi Calm Calm - N/A   Clear
3:35 PM 67.1 °F 58.1 °F 73% 29.94 in 7.0 mi North 4.6 mph - N/A   Clear
3:55 PM 67.1 °F 57.9 °F 72% 29.94 in 7.0 mi NNW 3.5 mph - N/A   Clear
4:15 PM 68.4 °F 58.1 °F 70% 29.94 in 7.0 mi North 6.9 mph - N/A   Clear
4:35 PM 68.0 °F 58.3 °F 71% 29.94 in 10.0 mi North 5.8 mph - N/A   Clear
4:55 PM 67.8 °F 58.1 °F 71% 29.95 in 7.0 mi NNE 5.8 mph - N/A   Clear
5:15 PM 66.7 °F 58.5 °F 75% 29.97 in 7.0 mi ENE 4.6 mph - N/A   Clear
5:35 PM 66.2 °F 59.0 °F 78% 29.97 in 7.0 mi ENE 3.5 mph - N/A   Clear
5:55 PM 65.8 °F 59.2 °F 79% 29.98 in 7.0 mi East 5.8 mph - N/A   Clear
6:15 PM 64.8 °F 59.9 °F 84% 29.99 in 7.0 mi ENE 4.6 mph - N/A   Scattered Clouds
6:35 PM 64.6 °F 59.7 °F 84% 30.00 in 7.0 mi East 4.6 mph - N/A   Mostly Cloudy
7:15 PM 63.9 °F 59.4 °F 85% 30.03 in 7.0 mi Calm Calm - N/A   Mostly Cloudy
7:35 PM 63.1 °F 59.5 °F 88% 30.02 in 7.0 mi Calm Calm - N/A Rain , Thunderstorm Light Thunderstorms and Rain
7:55 PM 62.2 °F 59.0 °F 89% 30.03 in 7.0 mi Calm Calm - N/A   Scattered Clouds
8:35 PM 61.7 °F 59.0 °F 91% 30.03 in 5.0 mi ESE 5.8 mph - N/A   Scattered Clouds
8:55 PM 61.7 °F 59.2 °F 91% 30.03 in 5.0 mi ESE 4.6 mph - N/A   Mostly Cloudy
9:15 PM 61.7 °F 59.2 °F 91% 30.05 in 5.0 mi SE 4.6 mph - N/A   Overcast
9:35 PM 61.7 °F 59.0 °F 91% 30.05 in 5.0 mi Calm Calm - N/A   Overcast
9:55 PM 61.7 °F 59.2 °F 91% 30.05 in 5.0 mi Calm Calm - N/A Thunderstorm Mostly Cloudy
10:15 PM 61.0 °F 58.3 °F 91% 30.06 in 4.0 mi Calm Calm - N/A   Scattered Clouds
10:35 PM 60.8 °F 58.3 °F 91% 30.06 in 4.0 mi Calm Calm - N/A   Scattered Clouds
10:55 PM 60.1 °F 57.9 °F 93% 30.07 in 3.0 mi SSE 4.6 mph - N/A   Mostly Cloudy
11:15 PM 60.4 °F 58.1 °F 92% 30.08 in 4.0 mi SSE 5.8 mph - N/A   Mostly Cloudy
11:35 PM 59.0 °F 56.5 °F 91% 30.09 in 7.0 mi SSE 4.6 mph - N/A   Mostly Cloudy
11:55 PM 58.1 °F 53.1 °F 83% 30.08 in 10.0 mi SSE 4.6 mph - N/A   Scattered Clouds